Retour au catalogue

COSMOS 2251 DEB

ActifLEO
NORAD 33924·DEBRIS·🇷🇺 Russia

Lancé Jun 16, 1993 depuis Plesetsk Cosmodrome

Loading…

Prochains Passages (prochaines 24 heures)

TLE

FraisSource: Space-Track

Époque: Sep 14, 2026, 06:13 UTC

1 33924U 93036ED  26257.25935321  .00000308  00000-0  30936-3 0  9999
2 33924  73.9132 187.2122 0401975 172.6477 188.0778 13.50528078864580

Suivez COSMOS 2251 DEB en temps réel avec AllMySat

Download on the App Store